CW9665 Weather Reports


Display with metric or nautical units.
time (UTC)temp
F
wind
direction
speed
MPH
gust
MPH
rain 1hr
in
rain 24hr
in
rain mn
in
humidity
%
barometer
mb
20260505123913 37 133 0.0 0.0 0.00 0.00 0.00 77 1012.3
20260505122911 37 133 0.0 0.0 0.00 0.00 0.00 77 1012.1
20260505121906 37 133 0.0 0.0 0.00 0.00 0.00 77 1012.1
20260505120904 37 133 0.0 0.0 0.00 0.00 0.00 78 1012.4
20260505115859 37 133 0.0 0.0 0.00 0.00 0.00 76 1011.9
20260505114854 37 133 0.0 0.0 0.00 0.00 0.00 76 1012.2
20260505113853 38 133 0.0 0.0 0.00 0.00 0.00 75 1011.7
20260505112851 38 133 0.0 0.0 0.00 0.00 0.00 75 1011.8
20260505111850 39 133 0.0 0.0 0.00 0.00 0.00 74 1011.8
20260505110847 39 132 1.0 1.0 0.00 0.00 0.00 73 1011.7
20260505101838 40 142 0.0 0.0 0.00 0.00 0.00 73 1011.7
20260505100835 40 142 0.0 0.0 0.00 0.00 0.00 72 1011.7
20260505095833 41 142 0.0 0.0 0.00 0.00 0.00 70 1012.1
20260505094833 41 142 0.0 0.0 0.00 0.00 0.00 70 1012.2
20260505093831 41 142 0.0 0.0 0.00 0.00 0.00 68 1012.2
20260505092826 42 142 0.0 0.0 0.00 0.00 0.00 68 1012.2
20260505091821 42 143 0.0 0.0 0.00 0.00 0.00 67 1012.4
20260505090817 43 143 1.0 1.0 0.00 0.00 0.00 67 1012.7
20260505085812 43 143 1.0 0.0 0.00 0.00 0.00 66 1012.6
20260505084807 43 143 0.0 0.0 0.00 0.00 0.00 65 1012.8
20260505083802 44 135 0.0 0.0 0.00 0.00 0.00 64 1012.8
20260505082801 44 136 0.0 0.0 0.00 0.00 0.00 63 1013.0
20260505081800 44 130 0.0 0.0 0.00 0.00 0.00 63 1013.3
20260505080800 44 129 1.0 1.0 0.00 0.00 0.00 62 1013.2
20260505075757 44 150 0.0 0.0 0.00 0.00 0.00 62 1013.0
20260505074752 45 101 1.0 2.0 0.00 0.00 0.00 62 1013.3
20260505073747 45 124 3.0 3.0 0.00 0.00 0.00 61 1013.2
20260505072747 44 146 1.0 1.0 0.00 0.00 0.00 61 1013.5
20260505071745 45 146 0.0 0.0 0.00 0.00 0.00 59 1013.3
20260505070739 45 147 0.0 0.0 0.00 0.00 0.00 59 1013.1
20260505065737 46 145 1.0 1.0 0.00 0.00 0.00 58 1012.7
20260505064737 46 145 1.0 2.0 0.00 0.00 0.00 56 1012.8
20260505063737 46 144 3.0 3.0 0.00 0.00 0.00 55 1012.6
20260505062736 47 145 2.0 2.0 0.00 0.00 0.00 53 1012.6
20260505061736 48 145 1.0 2.0 0.00 0.00 0.00 50 1012.4
20260505060731 48 136 0.0 0.0 0.00 0.00 0.00 48 1012.3
20260505055729 49 149 2.0 3.0 0.00 0.00 0.00 45 1012.4
20260505054730 51 140 2.0 2.0 0.00 0.00 0.00 39 1012.1
20260505053725 52 127 2.0 3.0 0.00 0.00 0.00 27 1012.2
20260505052725 53 56 4.0 4.0 0.00 0.00 0.00 24 1012.1
20260505051725 53 173 1.0 1.0 0.00 0.00 0.00 24 1012.2
20260505050720 54 132 1.0 1.0 0.00 0.00 0.00 22 1012.1
20260505041711 56 79 5.0 7.0 0.00 0.00 0.00 20 1012.2
20260505040706 56 319 3.0 3.0 0.00 0.00 0.00 20 1012.1
20260505035706 55 186 2.0 3.0 0.00 0.00 0.00 21 1012.1
20260505034704 55 155 1.0 1.0 0.00 0.00 0.00 21 1012.1
20260505033703 55 163 2.0 2.0 0.00 0.00 0.00 20 1011.8
20260505032659 56 136 2.0 3.0 0.00 0.00 0.00 20 1011.4
20260505031658 55 171 2.0 3.0 0.00 0.00 0.00 20 1011.3
20260505030657 56 138 2.0 2.0 0.00 0.00 0.00 21 1011.2
20260505025654 56 326 6.0 10.0 0.00 0.00 0.00 18 1010.6
20260505024650 56 355 4.0 7.0 0.00 0.00 0.00 18 1010.7
20260505023645 56 270 5.0 6.0 0.00 0.00 0.00 18 1010.8
20260505022645 56 169 2.0 2.0 0.00 0.00 0.00 18 1010.8
20260505021645 56 183 3.0 4.0 0.00 0.00 0.00 17 1010.9
20260505020643 57 76 1.0 2.0 0.00 0.00 0.00 19 1010.4
20260505015642 57 181 2.0 2.0 0.00 0.00 0.00 18 1010.4
20260505014641 57 17 6.0 7.0 0.00 0.00 0.00 17 1010.4
20260505013636 58 85 1.0 2.0 0.00 0.00 0.00 17 1010.3
20260505012631 58 138 3.0 3.0 0.00 0.00 0.00 17 1010.0
20260505011629 58 178 3.0 3.0 0.00 0.00 0.00 18 1009.8
20260505010627 59 180 2.0 3.0 0.00 0.00 0.00 17 1010.0
20260505005626 59 202 4.0 4.0 0.00 0.00 0.00 17 1009.9
20260505004626 60 183 1.0 2.0 0.00 0.00 0.00 17 1009.9
20260505003626 60 184 3.0 3.0 0.00 0.00 0.00 16 1010.0
20260505002625 60 175 3.0 4.0 0.00 0.00 0.00 16 1009.9
20260505001620 61 185 4.0 7.0 0.00 0.00 0.00 16 1010.2
20260505000615 61 190 3.0 3.0 0.00 0.00 0.00 16 1010.0
20260504235614 61 291 3.0 4.0 0.00 0.00 0.00 16 1009.9
20260504234614 62 327 2.0 3.0 0.00 0.00 0.00 18 1009.8
20260504233613 62 187 4.0 6.0 0.00 0.00 0.00 19 1010.0
20260504232613 62 208 7.0 10.0 0.00 0.00 0.00 18 1010.0
20260504231612 63 216 5.0 6.0 0.00 0.00 0.00 20 1010.2
20260504230610 63 146 2.0 3.0 0.00 0.00 0.00 20 1009.8
20260504225607 64 203 6.0 9.0 0.00 0.00 0.00 20 1010.3
20260504224606 65 264 6.0 8.0 0.00 0.00 0.00 19 1010.3
20260504223606 65 245 6.0 7.0 0.00 0.00 0.00 19 1010.3
20260504222604 65 181 4.0 4.0 0.00 0.00 0.00 20 1010.4
20260504221559 65 225 8.0 10.0 0.00 0.00 0.00 20 1010.4
20260504220558 66 196 6.0 7.0 0.00 0.00 0.00 19 1010.8
20260504215557 66 203 6.0 9.0 0.00 0.00 0.00 20 1010.9
20260504214556 67 182 4.0 6.0 0.00 0.00 0.00 20 1010.8
20260504213555 66 197 4.0 4.0 0.00 0.00 0.00 21 1010.9
20260504212554 66 213 4.0 4.0 0.00 0.00 0.00 21 1011.2
20260504211554 68 177 3.0 3.0 0.00 0.00 0.00 20 1011.2
20260504210554 67 194 5.0 7.0 0.00 0.00 0.00 19 1011.3
20260504205554 68 35 8.0 11.0 0.00 0.00 0.00 20 1011.1
20260504204549 68 175 4.0 4.0 0.00 0.00 0.00 21 1011.4
20260504203546 67 147 1.0 1.0 0.00 0.00 0.00 22 1011.4
20260504202545 65 96 4.0 4.0 0.00 0.00 0.00 23 1011.6
20260504201539 66 346 8.0 10.0 0.00 0.00 0.00 22 1012.1
20260504200538 64 171 2.0 2.0 0.00 0.00 0.00 23 1012.2
20260504195537 65 205 5.0 6.0 0.00 0.00 0.00 23 1012.1
20260504194537 66 183 3.0 3.0 0.00 0.00 0.00 22 1012.2
20260504193534 64 114 2.0 3.0 0.00 0.00 0.00 23 1012.1
20260504192531 62 151 1.0 1.0 0.00 0.00 0.00 24 1012.7
20260504191527 61 177 4.0 4.0 0.00 0.00 0.00 24 1012.6
20260504190525 60 151 1.0 1.0 0.00 0.00 0.00 24 1012.7
20260504185524 60 198 2.0 2.0 0.00 0.00 0.00 24 1013.0
20260504184521 60 140 2.0 2.0 0.00 0.00 0.00 26 1013.0
20260504183520 60 174 0.0 1.0 0.00 0.00 0.00 27 1013.1
20260504182520 60 155 1.0 2.0 0.00 0.00 0.00 26 1013.6
20260504181515 60 179 0.0 0.0 0.00 0.00 0.00 27 1013.3
20260504180512 59 174 2.0 3.0 0.00 0.00 0.00 29 1013.8
20260504175507 59 186 3.0 3.0 0.00 0.00 0.00 29 1013.6
20260504174502 58 159 1.0 1.0 0.00 0.00 0.00 29 1013.8
20260504173501 58 152 0.0 0.0 0.00 0.00 0.00 30 1013.8
20260504172500 58 156 1.0 1.0 0.00 0.00 0.00 29 1013.6
20260504171500 59 156 2.0 2.0 0.00 0.00 0.00 30 1013.8
20260504170458 59 186 1.0 1.0 0.00 0.00 0.00 31 1014.0
20260504150437 57 57 3.0 4.0 0.00 0.00 0.00 32 1013.7
20260504140429 54 58 3.0 4.0 0.00 0.00 0.00 33 1014.1
20260504130423 49 168 2.0 2.0 0.00 0.00 0.00 49 1013.7